Tracking 29892 objects as of 21-Nov-2024
HD Live streaming from Space Station
objects crossing your sky now

STARLINK-30888

Track STARLINK-30888 now!
10-day predictions
STARLINK-30888 is classified as:


NORAD ID: 58370
Int'l Code: 2023-177V
Perigee: 565.0 km
Apogee: 567.4 km
Inclination: 43.0 °
Period: 95.8 minutes
Semi major axis: 6937 km
RCS: Unknown
Launch date: November 18, 2023
Source: United States (US)
Launch site: AIR FORCE EASTERN TEST RANGE (AFETR)
Your satellite tracking list
Your tracking list is empty




NASA's NSSDC Master Catalog

Two Line Element Set (TLE):
1 58370U 23177V   24325.59368185  .00000705  00000-0  67272-4 0  9994
2 58370  43.0049  48.1806 0001736 283.3868  76.6781 15.02540247 56902
Source of the keplerian elements: AFSPC